Location: STAR School
(35.3054°N, 111.2976°W)
Time: 10:24:23
(UTC-07:00)

Vanguard 2 - All Passes

Search period start: 24 May 2019 00:00
Search period end: 03 June 2019 00:00
Orbit: 553 x 2939 km, 32.9° (Epoch: 23 May)

Date Brightness Start Highest point End Pass type
(mag) Time Alt. Az. Time Alt. Az. Time Alt. Az.
24 May - 13:18:21 10° S 13:29:24 21° SE 13:40:51 10° E daylight
24 May - 15:23:52 10° SW 15:40:26 50° SSE 15:55:19 10° E daylight
24 May - 17:34:49 10° WSW 17:52:43 75° SSE 18:05:46 10° E daylight
24 May - 19:48:29 10° W 20:04:41 79° S 20:14:44 10° ESE visible
24 May - 22:02:36 10° W 22:14:43 49° SSW 22:22:05 10° SE visible
25 May - 00:18:54 10° WSW 00:22:06 12° SW 00:24:51 10° SSW visible
25 May - 13:34:03 10° S 13:47:01 29° SE 14:00:33 10° E daylight
25 May - 15:41:17 10° SW 15:58:24 58° SSE 16:13:36 10° E daylight
25 May - 17:53:00 10° WSW 18:10:56 80° S 18:23:48 10° E daylight
25 May - 20:06:52 10° W 20:22:47 75° SSW 20:32:37 10° ESE visible
25 May - 22:21:07 10° W 22:32:20 39° SW 22:39:25 10° SSE visible
26 May - 13:50:27 10° SSW 14:04:40 36° SE 14:19:35 10° E daylight
26 May - 15:58:56 10° SW 16:16:28 66° SSE 16:31:47 10° E daylight
26 May - 18:11:15 10° W 18:29:11 82° S 18:41:51 10° E daylight
26 May - 20:25:15 10° W 20:40:49 68° SSW 20:50:26 10° ESE visible
26 May - 22:39:50 10° W 22:49:47 30° SW 22:56:27 10° SSE visible
27 May - 12:04:13 10° SSE 12:12:13 16° SE 12:21:00 10° E daylight
27 May - 14:07:19 10° SSW 14:22:23 45° SSE 14:38:14 10° E daylight
27 May - 16:16:49 10° WSW 16:34:36 73° SSE 16:49:56 10° E daylight
27 May - 18:29:35 10° W 18:47:25 82° S 18:59:52 10° E daylight
27 May - 20:43:38 10° W 20:58:43 60° SSW 21:08:06 10° SE visible
27 May - 22:58:55 10° W 23:07:07 22° SW 23:13:03 10° S visible
28 May - 12:19:08 10° S 12:29:39 23° SE 12:41:39 10° E daylight
28 May - 14:24:32 10° SW 14:40:12 53° SSE 14:56:40 10° E daylight
28 May - 16:34:51 10° WSW 16:52:49 78° S 17:08:04 10° E daylight
28 May - 18:47:56 10° W 19:05:38 79° S 19:17:51 10° ESE daylight
28 May - 21:02:04 10° W 21:16:28 50° SSW 21:25:37 10° SE visible
28 May - 23:18:53 10° W 23:24:20 15° SW 23:28:45 10° SSW visible
29 May - 12:35:08 10° SSW 12:47:07 30° SE 13:01:11 10° E daylight
29 May - 14:42:01 10° SW 14:58:08 62° SSE 15:14:59 10° E daylight
29 May - 16:53:01 10° WSW 17:11:05 81° S 17:26:10 10° E daylight
29 May - 19:06:17 10° W 19:23:47 74° SSW 19:35:45 10° ESE daylight
29 May - 21:20:38 10° W 21:34:04 41° SW 21:42:53 10° SSE visible
30 May - 12:51:44 10° SSW 13:04:38 38° SE 13:20:09 10° E daylight
30 May - 14:59:44 10° WSW 15:16:12 69° SSE 15:33:14 10° E daylight
30 May - 17:11:15 10° W 17:29:23 82° S 17:44:17 10° E daylight
30 May - 19:24:39 10° W 19:41:50 67° SSW 19:53:33 10° ESE daylight
30 May - 21:39:24 10° W 21:51:30 32° SW 21:59:51 10° SSE visible
31 May - 11:05:39 10° SSE 11:12:51 16° SE 11:21:15 10° E daylight
31 May - 13:08:44 10° SW 13:22:16 47° SE 13:38:47 10° E daylight
31 May - 15:17:37 10° WSW 15:34:20 75° SSE 15:51:26 10° E daylight
31 May - 17:29:31 10° W 17:47:41 81° S 18:02:21 10° E daylight
31 May - 19:43:02 10° W 19:59:44 59° SSW 20:11:12 10° SE visible
31 May - 21:58:35 10° W 22:08:50 24° SW 22:16:22 10° S visible
01 Jun - 11:20:54 10° S 11:30:09 23° SE 11:41:40 10° E daylight
01 Jun - 13:26:03 10° SW 13:40:02 56° SSE 13:57:13 10° E daylight
01 Jun - 15:35:39 10° WSW 15:52:35 80° S 16:09:38 10° E daylight
01 Jun - 17:47:49 10° W 18:05:56 78° SSW 18:20:22 10° ESE daylight
01 Jun - 20:01:28 10° W 20:17:30 50° SSW 20:28:39 10° SE visible
01 Jun - 22:18:33 10° W 22:26:03 17° SW 22:32:05 10° SSW visible
02 Jun - 11:37:06 10° SSW 11:47:30 31° SE 12:01:05 10° E daylight
02 Jun - 13:43:35 10° SW 13:57:56 64° SSE 14:15:34 10° E daylight
02 Jun - 15:53:46 10° W 16:10:53 82° S 16:27:50 10° E daylight
02 Jun - 18:06:07 10° W 18:24:06 73° SSW 18:38:17 10° ESE daylight
02 Jun - 20:20:02 10° W 20:35:07 41° SW 20:45:51 10° SSE visible
02 Jun - 22:41:42 10° WSW 22:43:14 10° SW 22:44:41 10° SW visible
